User: anonymous   Login
Location: Unspecified
(0.0000°N, 0.0000°E)
Time: 23:22:57
(UTC+00:00)
Language:

Tiangong 2 - Orbit

View from above orbital plane
View from above orbital plane
View from above satellite
View from above satellite

Ground track
Ground track

The orbit data is extracted from the following two-line orbital elements,

1 41765U 16057A   17050.57237269  .00010163  00000-0  10410-3 0  9996
2 41765  42.7862 336.9697 0005912 134.6474 233.7329 15.65079916 24591
Epoch (UTC): 19 February 2017 13:44:13
Eccentricity: 0.0005912
inclination: 42.7862°
perigee height: 369 km
apogee height: 377 km
right ascension of ascending node: 336.9697°
argument of perigee: 134.6474°
revolutions per day: 15.65079916
mean anomaly at epoch: 233.7329°
orbit number at epoch: 2459

The dashed part of the orbit path shows where the satellite is in the earth's shadow,  

DLR